Time,TemperatureF,DewpointF,PressureIn,WindDirection,WindDirectionDegrees,WindSpeedMPH,WindSpeedGustMPH,Humidity,HourlyPrecipIn,Conditions,Clouds,dailyrainin,SoftwareType,DateUTC
2013-09-13 00:00:00,67.3,53.6,29.67,SE,144,0.0,0.0,97,0.20,,,0.74,meteohub,2013-09-13 04:00:00,
2013-09-13 00:01:00,67.3,53.6,29.67,SE,144,0.0,0.0,97,0.20,,,0.74,meteohub,2013-09-13 04:01:00,
2013-09-13 00:02:00,67.3,53.6,29.66,SE,144,0.0,0.0,97,0.20,,,0.74,meteohub,2013-09-13 04:02:00,
2013-09-13 00:07:00,67.3,53.6,29.67,SE,144,0.0,0.0,97,0.20,,,0.76,meteohub,2013-09-13 04:07:00,
2013-09-13 00:12:00,67.3,53.6,29.67,SE,144,0.0,0.0,97,0.20,,,0.76,meteohub,2013-09-13 04:12:00,
2013-09-13 00:17:00,67.3,53.6,29.67,SE,144,0.0,0.0,97,0.19,,,0.78,meteohub,2013-09-13 04:17:00,
2013-09-13 00:22:00,67.3,53.6,29.67,SE,144,0.0,1.0,97,0.19,,,0.80,meteohub,2013-09-13 04:22:00,
2013-09-13 00:27:00,67.3,53.6,29.66,SE,144,0.0,1.0,97,0.18,,,0.81,meteohub,2013-09-13 04:27:00,
2013-09-13 00:32:00,67.3,53.6,29.66,SE,144,0.0,1.0,97,0.17,,,0.82,meteohub,2013-09-13 04:32:00,
2013-09-13 00:37:00,67.3,53.6,29.66,SE,144,0.0,1.0,97,0.17,,,0.84,meteohub,2013-09-13 04:37:00,
2013-09-13 00:42:00,67.3,53.6,29.66,SE,144,0.0,1.0,97,0.17,,,0.85,meteohub,2013-09-13 04:42:00,
2013-09-13 00:47:00,67.3,53.6,29.66,SE,144,0.0,0.0,97,0.16,,,0.86,meteohub,2013-09-13 04:47:00,
2013-09-13 00:52:00,67.3,53.6,29.66,SE,144,0.0,0.0,97,0.15,,,0.87,meteohub,2013-09-13 04:52:00,
2013-09-13 00:57:00,67.1,53.6,29.66,SE,144,0.0,0.0,97,0.15,,,0.88,meteohub,2013-09-13 04:57:00,
2013-09-13 01:02:00,67.1,53.6,29.66,SE,144,0.0,0.0,97,0.15,,,0.89,meteohub,2013-09-13 05:02:00,
2013-09-13 01:07:00,66.9,53.6,29.66,SE,144,0.0,0.0,97,0.14,,,0.90,meteohub,2013-09-13 05:07:00,
2013-09-13 01:12:00,66.9,53.6,29.66,SE,144,0.0,0.0,97,0.14,,,0.92,meteohub,2013-09-13 05:12:00,
2013-09-13 01:17:00,66.9,53.6,29.66,SE,144,0.0,0.0,97,0.13,,,0.92,meteohub,2013-09-13 05:17:00,
2013-09-13 01:22:00,66.9,53.6,29.66,SE,144,0.0,0.0,97,0.14,,,0.94,meteohub,2013-09-13 05:22:00,
2013-09-13 01:27:00,66.9,53.6,29.66,SE,144,0.0,0.0,97,0.12,,,0.94,meteohub,2013-09-13 05:27:00,
2013-09-13 01:32:00,66.9,53.6,29.66,SE,144,0.0,0.0,97,0.13,,,0.96,meteohub,2013-09-13 05:32:00,
2013-09-13 01:38:00,66.9,53.6,29.66,SE,144,0.0,0.0,97,0.12,,,0.96,meteohub,2013-09-13 05:38:00,
2013-09-13 01:43:00,66.9,53.6,29.66,SE,144,0.0,0.0,97,0.12,,,0.97,meteohub,2013-09-13 05:43:00,
2013-09-13 01:48:00,66.9,53.6,29.65,SE,144,0.0,0.0,97,0.12,,,0.98,meteohub,2013-09-13 05:48:00,
2013-09-13 01:53:00,66.9,53.6,29.65,SE,144,0.0,0.0,97,0.11,,,0.99,meteohub,2013-09-13 05:53:00,
2013-09-13 01:58:00,67.1,53.6,29.65,SE,144,0.0,0.0,97,0.11,,,1.00,meteohub,2013-09-13 05:58:00,
2013-09-13 02:03:00,67.1,53.6,29.65,SE,144,0.0,0.0,97,0.11,,,1.01,meteohub,2013-09-13 06:03:00,
2013-09-13 02:08:00,67.1,53.6,29.65,SE,144,0.0,0.0,98,0.10,,,1.01,meteohub,2013-09-13 06:08:00,
2013-09-13 02:13:00,67.1,53.6,29.64,SE,144,0.0,0.0,98,0.10,,,1.02,meteohub,2013-09-13 06:13:00,
2013-09-13 02:18:00,67.3,53.6,29.64,SE,144,0.0,0.0,98,0.10,,,1.03,meteohub,2013-09-13 06:18:00,
2013-09-13 02:23:00,67.3,53.6,29.64,SE,144,0.0,0.0,98,0.10,,,1.04,meteohub,2013-09-13 06:23:00,
2013-09-13 02:28:00,67.3,53.6,29.63,SE,144,0.0,0.0,98,0.10,,,1.05,meteohub,2013-09-13 06:28:00,
2013-09-13 02:33:00,67.3,53.6,29.63,SE,144,0.0,0.0,98,0.09,,,1.05,meteohub,2013-09-13 06:33:00,
2013-09-13 02:38:00,67.3,53.6,29.63,SE,144,0.0,0.0,98,0.09,,,1.06,meteohub,2013-09-13 06:38:00,
2013-09-13 02:43:00,67.3,53.4,29.63,SE,144,0.0,0.0,98,0.08,,,1.06,meteohub,2013-09-13 06:43:00,
2013-09-13 02:48:00,67.3,53.4,29.63,SE,144,0.0,0.0,98,0.09,,,1.07,meteohub,2013-09-13 06:48:00,
2013-09-13 02:53:00,67.3,53.4,29.62,SE,144,0.0,0.0,98,0.09,,,1.08,meteohub,2013-09-13 06:53:00,
2013-09-13 02:58:00,67.3,53.4,29.62,SE,144,0.0,0.0,98,0.09,,,1.09,meteohub,2013-09-13 06:58:00,
2013-09-13 03:03:00,67.1,53.4,29.62,SE,144,0.0,0.0,98,0.08,,,1.09,meteohub,2013-09-13 07:03:00,
2013-09-13 03:08:00,67.1,53.4,29.62,SE,144,0.0,0.0,98,0.08,,,1.10,meteohub,2013-09-13 07:08:00,
2013-09-13 03:13:00,66.9,53.4,29.62,SE,144,0.0,0.0,98,0.08,,,1.10,meteohub,2013-09-13 07:13:00,
2013-09-13 03:18:00,66.9,53.4,29.61,SE,144,0.0,0.0,98,0.08,,,1.11,meteohub,2013-09-13 07:18:00,
2013-09-13 03:23:00,66.9,53.4,29.61,SE,144,0.0,0.0,98,0.08,,,1.12,meteohub,2013-09-13 07:23:00,
2013-09-13 03:28:00,66.9,53.4,29.61,SE,144,0.0,0.0,98,0.07,,,1.12,meteohub,2013-09-13 07:28:00,
2013-09-13 03:33:00,66.9,53.4,29.61,SE,144,0.0,0.0,98,0.06,,,1.12,meteohub,2013-09-13 07:33:00,
2013-09-13 03:38:00,66.9,53.4,29.61,SE,144,0.0,0.0,98,0.07,,,1.13,meteohub,2013-09-13 07:38:00,
2013-09-13 03:43:00,66.9,53.4,29.61,SE,144,0.0,0.0,98,0.07,,,1.14,meteohub,2013-09-13 07:43:00,
2013-09-13 03:48:00,66.9,53.4,29.61,SE,144,0.0,0.0,98,0.06,,,1.14,meteohub,2013-09-13 07:48:00,
2013-09-13 03:53:00,66.9,53.4,29.61,SE,144,0.0,0.0,98,0.07,,,1.15,meteohub,2013-09-13 07:53:00,
2013-09-13 03:58:00,66.9,53.4,29.61,SE,144,0.0,0.0,98,0.06,,,1.15,meteohub,2013-09-13 07:58:00,
2013-09-13 04:03:00,66.9,53.4,29.61,SE,144,0.0,0.0,98,0.07,,,1.16,meteohub,2013-09-13 08:03:00,
2013-09-13 04:08:00,66.9,53.2,29.61,SE,144,0.0,0.0,98,0.06,,,1.16,meteohub,2013-09-13 08:08:00,
2013-09-13 04:13:00,66.9,53.2,29.61,SE,144,0.0,0.0,98,0.06,,,1.17,meteohub,2013-09-13 08:13:00,
2013-09-13 04:18:00,66.9,53.2,29.61,SE,144,0.0,0.0,98,0.06,,,1.17,meteohub,2013-09-13 08:18:00,
2013-09-13 04:23:00,66.9,53.2,29.61,SE,144,0.0,0.0,98,0.05,,,1.17,meteohub,2013-09-13 08:23:00,
2013-09-13 04:28:00,66.9,53.2,29.61,SE,144,0.0,0.0,98,0.06,,,1.18,meteohub,2013-09-13 08:28:00,
2013-09-13 04:33:00,66.9,53.2,29.61,SE,144,0.0,0.0,98,0.05,,,1.18,meteohub,2013-09-13 08:33:00,
2013-09-13 04:38:00,66.9,53.2,29.61,SE,144,0.0,0.0,98,0.06,,,1.19,meteohub,2013-09-13 08:38:00,
2013-09-13 04:43:00,66.9,53.2,29.61,SE,144,0.0,0.0,98,0.05,,,1.19,meteohub,2013-09-13 08:43:00,
2013-09-13 04:48:00,66.7,53.2,29.60,SE,144,0.0,0.0,98,0.06,,,1.20,meteohub,2013-09-13 08:48:00,
2013-09-13 04:53:00,66.7,53.2,29.60,SE,144,0.0,0.0,98,0.05,,,1.20,meteohub,2013-09-13 08:53:00,
2013-09-13 04:58:00,66.7,53.2,29.60,SE,144,0.0,0.0,98,0.05,,,1.20,meteohub,2013-09-13 08:58:00,
2013-09-13 05:03:00,66.7,53.2,29.61,SE,144,0.0,0.0,98,0.05,,,1.21,meteohub,2013-09-13 09:03:00,
2013-09-13 05:08:00,66.7,53.2,29.61,SE,144,0.0,0.0,98,0.05,,,1.21,meteohub,2013-09-13 09:08:00,
2013-09-13 05:13:00,66.9,53.2,29.61,SE,144,0.0,0.0,98,0.05,,,1.22,meteohub,2013-09-13 09:13:00,
2013-09-13 05:18:00,66.9,53.2,29.61,SE,144,0.0,0.0,98,0.05,,,1.22,meteohub,2013-09-13 09:18:00,
2013-09-13 05:23:00,66.9,53.2,29.61,SE,144,0.0,0.0,98,0.04,,,1.22,meteohub,2013-09-13 09:23:00,
2013-09-13 05:28:00,66.7,53.2,29.61,SE,144,0.0,0.0,98,0.05,,,1.23,meteohub,2013-09-13 09:28:00,
2013-09-13 05:33:00,66.7,53.2,29.61,SE,144,0.0,0.0,98,0.05,,,1.23,meteohub,2013-09-13 09:33:00,
2013-09-13 05:38:00,66.7,53.2,29.61,SE,144,0.0,0.0,98,0.04,,,1.23,meteohub,2013-09-13 09:38:00,
2013-09-13 05:43:00,66.7,53.2,29.62,SE,144,0.0,0.0,98,0.05,,,1.24,meteohub,2013-09-13 09:43:00,
2013-09-13 05:48:00,66.9,54.0,29.62,SE,144,0.0,0.0,98,0.04,,,1.24,meteohub,2013-09-13 09:48:00,
2013-09-13 05:53:00,66.7,54.0,29.62,SE,144,0.0,0.0,98,0.04,,,1.24,meteohub,2013-09-13 09:53:00,
2013-09-13 05:58:00,66.7,54.0,29.62,SE,144,0.0,0.0,98,0.03,,,1.24,meteohub,2013-09-13 09:58:00,
2013-09-13 06:04:00,66.7,54.0,29.62,SE,144,0.0,0.0,98,0.04,,,1.25,meteohub,2013-09-13 10:04:00,
2013-09-13 06:09:00,66.7,54.0,29.62,SE,144,0.0,0.0,98,0.04,,,1.25,meteohub,2013-09-13 10:09:00,
2013-09-13 06:14:00,66.7,54.0,29.61,SE,144,0.0,0.0,98,0.04,,,1.26,meteohub,2013-09-13 10:14:00,
2013-09-13 06:19:00,66.7,54.0,29.62,SE,144,0.0,0.0,98,0.04,,,1.26,meteohub,2013-09-13 10:19:00,
2013-09-13 06:24:00,66.7,54.0,29.62,SE,144,0.0,0.0,98,0.04,,,1.26,meteohub,2013-09-13 10:24:00,
2013-09-13 06:29:00,66.7,54.0,29.62,SE,144,0.0,0.0,98,0.03,,,1.26,meteohub,2013-09-13 10:29:00,
2013-09-13 06:34:00,66.7,54.0,29.62,SE,144,0.0,0.0,98,0.03,,,1.26,meteohub,2013-09-13 10:34:00,
2013-09-13 06:39:00,66.7,54.0,29.62,SE,144,0.0,1.0,98,0.04,,,1.27,meteohub,2013-09-13 10:39:00,
2013-09-13 06:44:00,66.7,54.0,29.63,SE,144,0.0,1.0,98,0.03,,,1.27,meteohub,2013-09-13 10:44:00,
2013-09-13 06:49:00,66.7,54.0,29.63,SE,144,0.0,1.0,98,0.03,,,1.27,meteohub,2013-09-13 10:49:00,
2013-09-13 06:54:00,66.7,54.0,29.62,SE,144,0.0,0.0,98,0.04,,,1.28,meteohub,2013-09-13 10:54:00,
2013-09-13 06:59:00,66.6,54.0,29.62,SE,144,0.0,0.0,98,0.03,,,1.28,meteohub,2013-09-13 10:59:00,
2013-09-13 07:04:00,66.6,54.0,29.62,SE,144,0.0,0.0,98,0.03,,,1.28,meteohub,2013-09-13 11:04:00,
2013-09-13 07:09:00,66.4,54.0,29.62,SE,144,0.0,0.0,98,0.03,,,1.28,meteohub,2013-09-13 11:09:00,
2013-09-13 07:14:00,66.4,54.0,29.62,SE,144,0.0,0.0,98,0.03,,,1.29,meteohub,2013-09-13 11:14:00,
2013-09-13 07:19:00,66.4,54.0,29.62,SE,144,0.0,0.0,98,0.03,,,1.29,meteohub,2013-09-13 11:19:00,
2013-09-13 07:24:00,66.4,54.0,29.62,SE,144,0.0,0.0,98,0.03,,,1.29,meteohub,2013-09-13 11:24:00,
2013-09-13 07:29:00,66.6,54.0,29.62,SE,144,0.0,0.0,98,0.03,,,1.29,meteohub,2013-09-13 11:29:00,
2013-09-13 07:34:00,66.6,54.0,29.62,SE,144,0.0,0.0,98,0.02,,,1.29,meteohub,2013-09-13 11:34:00,
2013-09-13 07:39:00,66.6,54.0,29.62,SE,144,0.0,0.0,98,0.03,,,1.30,meteohub,2013-09-13 11:39:00,
2013-09-13 07:44:00,66.4,54.0,29.62,SE,144,0.0,0.0,98,0.03,,,1.30,meteohub,2013-09-13 11:44:00,
2013-09-13 07:49:00,66.6,54.0,29.62,SE,144,0.0,0.0,98,0.03,,,1.30,meteohub,2013-09-13 11:49:00,
2013-09-13 07:54:00,66.6,53.2,29.62,SE,144,0.0,0.0,98,0.02,,,1.30,meteohub,2013-09-13 11:54:00,
2013-09-13 07:59:00,66.6,54.0,29.62,SE,144,0.0,0.0,98,0.02,,,1.30,meteohub,2013-09-13 11:59:00,
2013-09-13 08:04:00,66.6,54.0,29.62,SE,144,0.0,0.0,98,0.02,,,1.30,meteohub,2013-09-13 12:04:00,
2013-09-13 08:09:00,66.7,54.0,29.62,SE,144,0.0,0.0,98,0.03,,,1.31,meteohub,2013-09-13 12:09:00,
2013-09-13 08:14:00,66.7,54.0,29.62,SE,144,0.0,0.0,98,0.02,,,1.31,meteohub,2013-09-13 12:14:00,
2013-09-13 08:19:00,66.7,54.0,29.62,SE,144,0.0,0.0,98,0.02,,,1.31,meteohub,2013-09-13 12:19:00,
2013-09-13 08:24:00,66.9,54.0,29.62,SE,144,0.0,0.0,98,0.02,,,1.31,meteohub,2013-09-13 12:24:00,
2013-09-13 08:29:00,66.9,54.0,29.62,SE,144,0.0,0.0,98,0.02,,,1.31,meteohub,2013-09-13 12:29:00,
2013-09-13 08:34:00,66.9,54.0,29.62,SE,144,0.0,0.0,98,0.02,,,1.31,meteohub,2013-09-13 12:34:00,
2013-09-13 08:39:00,66.9,54.0,29.62,SE,144,0.0,0.0,98,0.01,,,1.31,meteohub,2013-09-13 12:39:00,
2013-09-13 08:44:00,67.1,54.0,29.62,SE,144,0.0,0.0,98,0.02,,,1.32,meteohub,2013-09-13 12:44:00,
2013-09-13 08:49:00,67.3,54.0,29.62,SE,144,0.0,0.0,98,0.02,,,1.32,meteohub,2013-09-13 12:49:00,
2013-09-13 08:54:00,67.3,54.0,29.62,SE,144,0.0,0.0,98,0.02,,,1.32,meteohub,2013-09-13 12:54:00,
2013-09-13 08:59:00,67.3,54.0,29.62,SE,144,0.0,0.0,98,0.02,,,1.32,meteohub,2013-09-13 12:59:00,
2013-09-13 09:04:00,67.6,54.0,29.62,SE,144,0.0,0.0,98,0.02,,,1.32,meteohub,2013-09-13 13:04:00,
2013-09-13 09:09:00,67.6,54.0,29.63,SE,144,0.0,0.0,98,0.01,,,1.32,meteohub,2013-09-13 13:09:00,
2013-09-13 09:14:00,68.2,54.0,29.63,SE,144,0.0,0.0,99,0.01,,,1.32,meteohub,2013-09-13 13:14:00,
2013-09-13 09:19:00,68.0,54.1,29.62,SE,144,0.0,0.0,98,0.01,,,1.32,meteohub,2013-09-13 13:19:00,
2013-09-13 09:24:00,68.0,54.1,29.63,SE,144,0.0,1.0,98,0.02,,,1.33,meteohub,2013-09-13 13:24:00,
2013-09-13 09:29:00,68.2,54.1,29.62,SE,144,0.0,1.0,98,0.02,,,1.33,meteohub,2013-09-13 13:29:00,
2013-09-13 09:34:00,68.2,54.1,29.62,SE,144,0.0,0.0,98,0.02,,,1.33,meteohub,2013-09-13 13:34:00,
2013-09-13 09:39:00,68.4,54.1,29.62,SE,144,0.0,0.0,98,0.02,,,1.33,meteohub,2013-09-13 13:39:00,
2013-09-13 09:44:00,68.2,54.1,29.62,SE,144,0.0,0.0,98,0.01,,,1.33,meteohub,2013-09-13 13:44:00,
2013-09-13 09:49:00,68.2,54.1,29.62,SE,144,0.0,0.0,98,0.01,,,1.33,meteohub,2013-09-13 13:49:00,
2013-09-13 09:54:00,68.4,54.1,29.62,SE,144,0.0,0.0,98,0.01,,,1.33,meteohub,2013-09-13 13:54:00,
2013-09-13 09:59:00,68.5,54.1,29.62,SE,144,0.0,0.0,98,0.01,,,1.33,meteohub,2013-09-13 13:59:00,
2013-09-13 10:04:00,68.7,54.1,29.62,SE,144,0.0,0.0,98,0.01,,,1.33,meteohub,2013-09-13 14:04:00,
2013-09-13 10:09:00,68.7,54.1,29.62,SE,144,0.0,0.0,98,0.01,,,1.33,meteohub,2013-09-13 14:09:00,
2013-09-13 10:14:00,68.5,54.1,29.62,SE,144,0.0,0.0,98,0.02,,,1.34,meteohub,2013-09-13 14:14:00,
2013-09-13 10:19:00,68.5,54.1,29.61,SE,144,0.0,0.0,98,0.02,,,1.34,meteohub,2013-09-13 14:19:00,
2013-09-13 10:24:00,68.7,54.1,29.61,SE,144,0.0,0.0,98,0.01,,,1.34,meteohub,2013-09-13 14:24:00,
2013-09-13 10:29:00,69.1,54.1,29.61,SE,144,0.0,0.0,98,0.01,,,1.34,meteohub,2013-09-13 14:29:00,
2013-09-13 10:34:00,69.4,54.1,29.61,SE,144,0.0,0.0,98,0.01,,,1.34,meteohub,2013-09-13 14:34:00,
2013-09-13 10:39:00,69.4,54.1,29.61,SE,144,0.0,0.0,98,0.01,,,1.34,meteohub,2013-09-13 14:39:00,
2013-09-13 10:44:00,69.3,54.1,29.61,SE,144,0.0,1.0,98,0.01,,,1.34,meteohub,2013-09-13 14:44:00,
2013-09-13 10:49:00,69.4,54.1,29.61,SE,144,0.0,1.0,98,0.01,,,1.34,meteohub,2013-09-13 14:49:00,
2013-09-13 10:54:00,69.6,54.1,29.61,SE,144,0.0,0.0,98,0.01,,,1.34,meteohub,2013-09-13 14:54:00,
2013-09-13 10:59:00,69.8,54.1,29.61,SE,144,0.0,0.0,98,0.01,,,1.34,meteohub,2013-09-13 14:59:00,
2013-09-13 11:04:00,70.2,54.1,29.61,SE,144,0.0,0.0,97,0.01,,,1.34,meteohub,2013-09-13 15:04:00,
2013-09-13 11:09:00,70.2,54.3,29.61,SE,144,0.0,0.0,97,0.02,,,1.35,meteohub,2013-09-13 15:09:00,
2013-09-13 11:14:00,70.0,54.1,29.61,SE,144,0.0,1.0,96,0.01,,,1.35,meteohub,2013-09-13 15:14:00,
2013-09-13 11:19:00,70.5,54.1,29.61,SE,145,0.0,1.0,96,0.01,,,1.35,meteohub,2013-09-13 15:19:00,
2013-09-13 11:24:00,71.2,54.1,29.61,SE,145,0.0,2.0,95,0.01,,,1.35,meteohub,2013-09-13 15:24:00,
2013-09-13 11:29:00,71.8,54.3,29.61,South,188,0.0,2.0,94,0.01,,,1.35,meteohub,2013-09-13 15:29:00,
2013-09-13 11:34:00,72.0,54.3,29.60,South,171,0.0,2.0,92,0.01,,,1.35,meteohub,2013-09-13 15:34:00,
2013-09-13 11:39:00,72.5,54.3,29.60,South,171,0.0,2.0,90,0.01,,,1.35,meteohub,2013-09-13 15:39:00,
2013-09-13 11:44:00,72.3,54.3,29.60,South,171,0.0,2.0,89,0.01,,,1.35,meteohub,2013-09-13 15:44:00,
2013-09-13 11:49:00,72.3,54.3,29.60,South,171,0.0,2.0,90,0.01,,,1.35,meteohub,2013-09-13 15:49:00,
2013-09-13 11:54:00,72.0,54.3,29.60,South,171,0.0,1.0,90,0.01,,,1.35,meteohub,2013-09-13 15:54:00,
2013-09-13 11:59:00,71.8,54.3,29.60,South,171,0.0,0.0,90,0.01,,,1.35,meteohub,2013-09-13 15:59:00,
2013-09-13 12:04:00,71.6,54.3,29.60,South,171,0.0,0.0,90,0.01,,,1.35,meteohub,2013-09-13 16:04:00,
2013-09-13 12:09:00,71.2,53.6,29.60,South,171,0.0,0.0,89,0.00,,,1.35,meteohub,2013-09-13 16:09:00,
2013-09-13 12:14:00,71.2,53.6,29.60,South,171,0.0,0.0,90,0.00,,,1.35,meteohub,2013-09-13 16:14:00,
2013-09-13 12:19:00,71.2,53.6,29.60,South,171,0.0,0.0,90,0.00,,,1.35,meteohub,2013-09-13 16:19:00,
2013-09-13 12:24:00,71.6,54.3,29.60,South,171,0.0,0.0,92,0.00,,,1.35,meteohub,2013-09-13 16:24:00,
2013-09-13 12:29:00,72.0,53.6,29.59,South,172,0.0,0.0,88,0.00,,,1.35,meteohub,2013-09-13 16:29:00,
2013-09-13 12:34:00,72.9,53.6,29.59,South,172,0.0,1.0,89,0.00,,,1.35,meteohub,2013-09-13 16:34:00,
2013-09-13 12:39:00,73.4,53.6,29.59,NW,319,1.0,2.0,85,0.00,,,1.35,meteohub,2013-09-13 16:39:00,
2013-09-13 12:44:00,73.9,53.6,29.58,WNW,286,2.0,5.0,83,0.00,,,1.35,meteohub,2013-09-13 16:44:00,
2013-09-13 12:49:00,74.8,53.6,29.58,WNW,286,0.0,5.0,83,0.00,,,1.35,meteohub,2013-09-13 16:49:00,
2013-09-13 12:54:00,75.6,53.6,29.58,WNW,288,0.0,5.0,82,0.00,,,1.35,meteohub,2013-09-13 16:54:00,
2013-09-13 12:59:00,75.9,53.6,29.58,South,172,0.0,2.0,78,0.00,,,1.35,meteohub,2013-09-13 16:59:00,
2013-09-13 13:04:00,75.7,53.6,29.58,South,173,1.0,2.0,79,0.00,,,1.35,meteohub,2013-09-13 17:04:00,
2013-09-13 13:09:00,76.1,53.8,29.58,NW,309,2.0,2.0,75,0.00,,,1.35,meteohub,2013-09-13 17:09:00,
2013-09-13 13:14:00,76.1,53.8,29.58,WNW,295,0.0,2.0,75,0.00,,,1.35,meteohub,2013-09-13 17:14:00,
2013-09-13 13:19:00,75.7,53.8,29.58,WNW,296,1.0,2.0,75,0.00,,,1.35,meteohub,2013-09-13 17:19:00,
2013-09-13 13:24:00,75.7,53.8,29.58,WNW,289,0.0,2.0,76,0.00,,,1.35,meteohub,2013-09-13 17:24:00,
2013-09-13 13:29:00,75.9,53.8,29.57,WNW,289,0.0,2.0,77,0.00,,,1.35,meteohub,2013-09-13 17:29:00,
2013-09-13 13:34:00,76.6,53.8,29.57,WNW,296,1.0,2.0,74,0.00,,,1.35,meteohub,2013-09-13 17:34:00,
2013-09-13 13:39:00,76.5,53.8,29.57,WNW,297,1.0,6.0,73,0.00,,,1.35,meteohub,2013-09-13 17:39:00,
2013-09-13 13:44:00,76.3,53.8,29.58,WNW,298,0.0,6.0,75,0.00,,,1.35,meteohub,2013-09-13 17:44:00,
2013-09-13 13:49:00,76.3,53.8,29.58,NNW,346,0.0,6.0,73,0.00,,,1.35,meteohub,2013-09-13 17:49:00,
2013-09-13 13:54:00,76.1,53.8,29.57,NNW,346,0.0,2.0,74,0.00,,,1.35,meteohub,2013-09-13 17:54:00,
2013-09-13 13:59:00,75.7,53.6,29.57,NNW,344,0.0,2.0,73,0.00,,,1.35,meteohub,2013-09-13 17:59:00,
2013-09-13 14:04:00,75.7,53.6,29.57,NNW,329,0.0,2.0,75,0.00,,,1.35,meteohub,2013-09-13 18:04:00,
2013-09-13 14:09:00,75.7,53.6,29.57,ENE,69,0.0,2.0,73,0.00,,,1.35,meteohub,2013-09-13 18:09:00,
2013-09-13 14:14:00,75.9,53.6,29.57,WSW,240,0.0,2.0,74,0.00,,,1.35,meteohub,2013-09-13 18:14:00,
2013-09-13 14:19:00,76.3,53.6,29.57,SW,234,1.0,2.0,73,0.00,,,1.35,meteohub,2013-09-13 18:19:00,
2013-09-13 14:24:00,76.5,53.6,29.57,South,187,1.0,2.0,75,0.00,,,1.35,meteohub,2013-09-13 18:24:00,
2013-09-13 14:29:00,76.6,53.6,29.57,South,181,0.0,2.0,74,0.00,,,1.35,meteohub,2013-09-13 18:29:00,
2013-09-13 14:34:00,76.8,53.6,29.57,South,181,0.0,3.0,75,0.00,,,1.35,meteohub,2013-09-13 18:34:00,
2013-09-13 14:39:00,77.2,53.6,29.57,WNW,295,0.0,3.0,72,0.00,,,1.35,meteohub,2013-09-13 18:39:00,
2013-09-13 14:44:00,77.4,53.6,29.57,NW,323,1.0,3.0,71,0.00,,,1.35,meteohub,2013-09-13 18:44:00,
2013-09-13 14:49:00,77.2,53.6,29.57,South,184,0.0,4.0,71,0.00,,,1.35,meteohub,2013-09-13 18:49:00,
2013-09-13 14:54:00,77.0,53.6,29.58,SSW,203,1.0,4.0,73,0.00,,,1.35,meteohub,2013-09-13 18:54:00,
2013-09-13 14:59:00,76.8,52.9,29.58,South,182,0.0,4.0,73,0.00,,,1.35,meteohub,2013-09-13 18:59:00,
2013-09-13 15:04:00,76.6,52.9,29.58,South,178,0.0,2.0,73,0.00,,,1.35,meteohub,2013-09-13 19:04:00,
2013-09-13 15:09:00,76.5,53.6,29.58,South,178,2.0,2.0,74,0.00,,,1.35,meteohub,2013-09-13 19:09:00,
2013-09-13 15:14:00,75.9,53.6,29.58,South,178,0.0,4.0,73,0.00,,,1.35,meteohub,2013-09-13 19:14:00,
2013-09-13 15:19:00,75.7,52.9,29.59,South,178,0.0,4.0,73,0.00,,,1.35,meteohub,2013-09-13 19:19:00,
2013-09-13 15:24:00,75.4,52.9,29.59,SSE,156,0.0,3.0,74,0.00,,,1.35,meteohub,2013-09-13 19:24:00,
2013-09-13 15:29:00,74.7,52.9,29.60,SSE,155,0.0,5.0,75,0.00,,,1.35,meteohub,2013-09-13 19:29:00,
2013-09-13 15:34:00,73.8,53.6,29.60,ESE,120,0.0,5.0,75,0.00,,,1.35,meteohub,2013-09-13 19:34:00,
2013-09-13 15:39:00,73.4,52.9,29.59,SW,223,0.0,5.0,76,0.00,,,1.35,meteohub,2013-09-13 19:39:00,
2013-09-13 15:45:00,73.2,52.9,29.60,SW,222,0.0,5.0,77,0.00,,,1.35,meteohub,2013-09-13 19:45:00,
2013-09-13 15:50:00,73.0,52.9,29.60,SW,217,0.0,5.0,77,0.00,,,1.35,meteohub,2013-09-13 19:50:00,
2013-09-13 15:55:00,72.9,52.9,29.60,SSW,197,0.0,5.0,79,0.00,,,1.35,meteohub,2013-09-13 19:55:00,
2013-09-13 16:00:00,72.7,52.9,29.61,South,182,0.0,2.0,78,0.00,,,1.35,meteohub,2013-09-13 20:00:00,
2013-09-13 16:05:00,72.5,52.9,29.61,South,182,2.0,2.0,77,0.00,,,1.35,meteohub,2013-09-13 20:05:00,
2013-09-13 16:10:00,72.1,52.9,29.61,South,184,0.0,2.0,77,0.00,,,1.35,meteohub,2013-09-13 20:10:00,
2013-09-13 16:15:00,72.0,52.9,29.61,South,183,0.0,2.0,78,0.00,,,1.35,meteohub,2013-09-13 20:15:00,
2013-09-13 16:20:00,71.8,52.9,29.61,NE,38,0.0,2.0,77,0.00,,,1.35,meteohub,2013-09-13 20:20:00,
2013-09-13 16:25:00,71.4,52.9,29.61,SE,126,0.0,2.0,77,0.00,,,1.35,meteohub,2013-09-13 20:25:00,
2013-09-13 16:30:00,71.2,52.9,29.61,WSW,242,0.0,4.0,77,0.00,,,1.35,meteohub,2013-09-13 20:30:00,
2013-09-13 16:35:00,71.1,52.9,29.61,SSW,207,2.0,4.0,77,0.00,,,1.35,meteohub,2013-09-13 20:35:00,
2013-09-13 16:40:00,70.9,52.9,29.62,West,273,0.0,5.0,78,0.00,,,1.35,meteohub,2013-09-13 20:40:00,
2013-09-13 16:45:00,70.5,52.9,29.61,WSW,252,0.0,5.0,78,0.00,,,1.35,meteohub,2013-09-13 20:45:00,
2013-09-13 16:50:00,70.3,53.1,29.62,WSW,252,0.0,5.0,79,0.00,,,1.35,meteohub,2013-09-13 20:50:00,
2013-09-13 16:55:00,70.3,53.1,29.62,SSE,150,2.0,5.0,80,0.00,,,1.35,meteohub,2013-09-13 20:55:00,
2013-09-13 17:00:00,70.2,53.1,29.62,SSE,150,0.0,5.0,79,0.00,,,1.35,meteohub,2013-09-13 21:00:00,
2013-09-13 17:05:00,70.2,53.1,29.62,SSE,149,0.0,5.0,80,0.00,,,1.35,meteohub,2013-09-13 21:05:00,
2013-09-13 17:10:00,70.2,53.1,29.63,East,80,0.0,6.0,80,0.00,,,1.35,meteohub,2013-09-13 21:10:00,
2013-09-13 17:15:00,69.6,53.1,29.63,SE,138,0.0,6.0,79,0.00,,,1.35,meteohub,2013-09-13 21:15:00,
2013-09-13 17:20:00,69.3,53.1,29.62,SE,138,0.0,6.0,80,0.00,,,1.35,meteohub,2013-09-13 21:20:00,
2013-09-13 17:25:00,69.3,53.1,29.63,SE,128,0.0,5.0,79,0.00,,,1.35,meteohub,2013-09-13 21:25:00,
2013-09-13 17:30:00,68.7,52.9,29.63,SE,145,1.0,5.0,79,0.00,,,1.35,meteohub,2013-09-13 21:30:00,
2013-09-13 17:35:00,68.5,52.9,29.64,SE,145,1.0,5.0,78,0.00,,,1.35,meteohub,2013-09-13 21:35:00,
2013-09-13 17:40:00,68.4,52.9,29.64,SE,145,0.0,5.0,79,0.00,,,1.35,meteohub,2013-09-13 21:40:00,
2013-09-13 17:45:00,68.4,52.9,29.64,SE,145,0.0,5.0,79,0.00,,,1.35,meteohub,2013-09-13 21:45:00,
2013-09-13 17:50:00,68.2,52.9,29.64,SE,145,0.0,3.0,80,0.00,,,1.35,meteohub,2013-09-13 21:50:00,
2013-09-13 17:55:00,68.0,52.9,29.64,ESE,109,0.0,2.0,80,0.00,,,1.35,meteohub,2013-09-13 21:55:00,
2013-09-13 18:00:00,67.8,52.9,29.64,ESE,109,0.0,5.0,80,0.00,,,1.35,meteohub,2013-09-13 22:00:00,
2013-09-13 18:05:00,67.6,52.9,29.64,ESE,109,0.0,5.0,80,0.00,,,1.35,meteohub,2013-09-13 22:05:00,
2013-09-13 18:10:00,67.5,52.9,29.64,ESE,109,0.0,2.0,81,0.00,,,1.35,meteohub,2013-09-13 22:10:00,
2013-09-13 18:15:00,67.3,52.9,29.65,ESE,109,0.0,1.0,82,0.00,,,1.35,meteohub,2013-09-13 22:15:00,
2013-09-13 18:20:00,66.9,52.9,29.65,ESE,109,0.0,0.0,82,0.00,,,1.35,meteohub,2013-09-13 22:20:00,
2013-09-13 18:25:00,66.7,52.9,29.65,ESE,109,0.0,0.0,83,0.00,,,1.35,meteohub,2013-09-13 22:25:00,
2013-09-13 18:30:00,66.6,52.9,29.66,ESE,109,0.0,0.0,83,0.00,,,1.35,meteohub,2013-09-13 22:30:00,
2013-09-13 18:35:00,66.4,52.9,29.66,ESE,109,0.0,0.0,84,0.00,,,1.35,meteohub,2013-09-13 22:35:00,
2013-09-13 18:40:00,66.2,52.9,29.67,ESE,109,0.0,0.0,83,0.00,,,1.35,meteohub,2013-09-13 22:40:00,
2013-09-13 18:45:00,66.0,52.9,29.68,ESE,109,0.0,0.0,84,0.00,,,1.35,meteohub,2013-09-13 22:45:00,
2013-09-13 18:50:00,66.0,52.9,29.68,SSE,167,0.0,0.0,83,0.00,,,1.35,meteohub,2013-09-13 22:50:00,
2013-09-13 18:55:00,65.7,52.9,29.68,SSE,159,0.0,4.0,82,0.00,,,1.35,meteohub,2013-09-13 22:55:00,
2013-09-13 19:00:00,65.5,52.9,29.68,SSE,159,1.0,5.0,82,0.00,,,1.35,meteohub,2013-09-13 23:00:00,
2013-09-13 19:05:00,65.3,52.9,29.69,SSE,159,0.0,5.0,83,0.00,,,1.35,meteohub,2013-09-13 23:05:00,
2013-09-13 19:10:00,65.1,52.9,29.69,SSE,159,0.0,1.0,84,0.00,,,1.35,meteohub,2013-09-13 23:10:00,
2013-09-13 19:15:00,65.1,52.9,29.70,SSE,159,0.0,1.0,84,0.00,,,1.35,meteohub,2013-09-13 23:15:00,
2013-09-13 19:20:00,64.9,52.7,29.70,SSE,159,0.0,0.0,84,0.00,,,1.35,meteohub,2013-09-13 23:20:00,
2013-09-13 19:25:00,64.8,52.7,29.70,SSE,159,0.0,0.0,84,0.00,,,1.35,meteohub,2013-09-13 23:25:00,
2013-09-13 19:30:00,64.6,52.7,29.70,SSE,159,0.0,0.0,85,0.00,,,1.35,meteohub,2013-09-13 23:30:00,
2013-09-13 19:35:00,64.2,53.4,29.70,SSE,159,0.0,0.0,85,0.00,,,1.35,meteohub,2013-09-13 23:35:00,
2013-09-13 19:40:00,64.0,53.6,29.70,West,259,0.0,1.0,85,0.00,,,1.35,meteohub,2013-09-13 23:40:00,
2013-09-13 19:45:00,63.9,53.6,29.71,West,259,0.0,1.0,85,0.00,,,1.35,meteohub,2013-09-13 23:45:00,
2013-09-13 19:50:00,63.7,53.6,29.71,West,259,0.0,1.0,85,0.00,,,1.35,meteohub,2013-09-13 23:50:00,
2013-09-13 19:55:00,63.3,52.9,29.72,West,259,0.0,1.0,84,0.00,,,1.35,meteohub,2013-09-13 23:55:00,
2013-09-13 20:00:00,63.3,52.9,29.72,West,259,0.0,0.0,84,0.00,,,1.35,meteohub,2013-09-14 00:00:00,
2013-09-13 20:05:00,63.1,53.6,29.72,West,259,0.0,0.0,85,0.00,,,0.00,meteohub,2013-09-14 00:05:00,
2013-09-13 20:10:00,63.1,53.6,29.72,West,259,0.0,0.0,85,0.00,,,0.00,meteohub,2013-09-14 00:10:00,
2013-09-13 20:15:00,63.0,53.6,29.73,West,259,0.0,0.0,84,0.00,,,0.00,meteohub,2013-09-14 00:15:00,
2013-09-13 20:20:00,62.8,53.6,29.73,West,259,0.0,0.0,84,0.00,,,0.00,meteohub,2013-09-14 00:20:00,
2013-09-13 20:25:00,62.4,53.6,29.73,West,259,0.0,0.0,85,0.00,,,0.00,meteohub,2013-09-14 00:25:00,
2013-09-13 20:30:00,62.2,53.6,29.73,West,259,0.0,0.0,85,0.00,,,0.00,meteohub,2013-09-14 00:30:00,
2013-09-13 20:35:00,62.1,53.6,29.73,West,259,0.0,0.0,86,0.00,,,0.00,meteohub,2013-09-14 00:35:00,
2013-09-13 20:40:00,61.9,53.6,29.73,West,259,0.0,0.0,86,0.00,,,0.00,meteohub,2013-09-14 00:40:00,
2013-09-13 20:45:00,61.5,53.6,29.73,West,259,0.0,0.0,87,0.00,,,0.00,meteohub,2013-09-14 00:45:00,
2013-09-13 20:50:00,61.2,53.6,29.73,West,259,0.0,0.0,88,0.00,,,0.00,meteohub,2013-09-14 00:50:00,
2013-09-13 20:55:00,61.2,53.6,29.74,West,259,0.0,0.0,89,0.00,,,0.00,meteohub,2013-09-14 00:55:00,
2013-09-13 21:00:00,61.0,53.6,29.73,West,259,0.0,0.0,89,0.00,,,0.00,meteohub,2013-09-14 01:00:00,
2013-09-13 21:05:00,61.0,53.6,29.74,West,259,0.0,0.0,89,0.00,,,0.00,meteohub,2013-09-14 01:05:00,
2013-09-13 21:10:00,61.0,53.6,29.74,West,259,0.0,0.0,88,0.00,,,0.00,meteohub,2013-09-14 01:10:00,
2013-09-13 21:15:00,60.8,53.6,29.75,West,259,0.0,0.0,88,0.00,,,0.00,meteohub,2013-09-14 01:15:00,
2013-09-13 21:20:00,60.8,53.6,29.75,West,259,0.0,0.0,88,0.00,,,0.00,meteohub,2013-09-14 01:20:00,
2013-09-13 21:25:00,60.6,53.6,29.75,West,259,0.0,0.0,88,0.00,,,0.00,meteohub,2013-09-14 01:25:00,
2013-09-13 21:30:00,60.4,53.6,29.75,West,259,0.0,0.0,88,0.00,,,0.00,meteohub,2013-09-14 01:30:00,
2013-09-13 21:35:00,60.4,53.6,29.75,West,259,0.0,0.0,89,0.00,,,0.00,meteohub,2013-09-14 01:35:00,
2013-09-13 21:40:00,60.3,53.6,29.75,West,259,0.0,0.0,89,0.00,,,0.00,meteohub,2013-09-14 01:40:00,
2013-09-13 21:45:00,60.3,53.6,29.75,West,259,0.0,0.0,89,0.00,,,0.00,meteohub,2013-09-14 01:45:00,
2013-09-13 21:50:00,60.1,53.6,29.74,West,259,0.0,0.0,89,0.00,,,0.00,meteohub,2013-09-14 01:50:00,
2013-09-13 21:55:00,59.7,53.6,29.75,West,259,0.0,0.0,90,0.00,,,0.00,meteohub,2013-09-14 01:55:00,
2013-09-13 22:00:00,59.5,53.6,29.75,West,259,0.0,0.0,90,0.00,,,0.00,meteohub,2013-09-14 02:00:00,
2013-09-13 22:05:00,59.5,53.6,29.75,West,259,0.0,0.0,90,0.00,,,0.00,meteohub,2013-09-14 02:05:00,
2013-09-13 22:11:00,59.5,53.6,29.75,West,259,0.0,1.0,90,0.00,,,0.00,meteohub,2013-09-14 02:11:00,
2013-09-13 22:16:00,59.5,53.6,29.75,West,259,0.0,1.0,90,0.00,,,0.00,meteohub,2013-09-14 02:16:00,
2013-09-13 22:21:00,59.7,53.6,29.75,West,259,0.0,1.0,89,0.00,,,0.00,meteohub,2013-09-14 02:21:00,
2013-09-13 22:26:00,59.7,53.6,29.76,West,259,0.0,1.0,89,0.00,,,0.00,meteohub,2013-09-14 02:26:00,
2013-09-13 22:31:00,59.9,53.6,29.75,West,259,0.0,1.0,89,0.00,,,0.00,meteohub,2013-09-14 02:31:00,
2013-09-13 22:36:00,59.9,53.6,29.76,West,259,0.0,0.0,89,0.00,,,0.00,meteohub,2013-09-14 02:36:00,
2013-09-13 22:41:00,59.7,53.6,29.76,West,259,0.0,0.0,89,0.00,,,0.00,meteohub,2013-09-14 02:41:00,
2013-09-13 22:46:00,59.7,53.6,29.76,West,259,0.0,0.0,89,0.00,,,0.00,meteohub,2013-09-14 02:46:00,
2013-09-13 22:51:00,59.5,53.6,29.76,West,259,0.0,0.0,89,0.00,,,0.00,meteohub,2013-09-14 02:51:00,
2013-09-13 22:56:00,59.5,53.6,29.76,West,259,0.0,0.0,89,0.00,,,0.00,meteohub,2013-09-14 02:56:00,
2013-09-13 23:01:00,59.5,53.6,29.76,West,259,0.0,0.0,89,0.00,,,0.00,meteohub,2013-09-14 03:01:00,
2013-09-13 23:06:00,59.4,53.6,29.76,West,259,0.0,0.0,89,0.00,,,0.00,meteohub,2013-09-14 03:06:00,
2013-09-13 23:11:00,59.5,53.4,29.77,West,259,0.0,0.0,89,0.00,,,0.00,meteohub,2013-09-14 03:11:00,
2013-09-13 23:16:00,59.5,53.4,29.76,West,259,0.0,0.0,90,0.00,,,0.00,meteohub,2013-09-14 03:16:00,
2013-09-13 23:21:00,59.4,53.4,29.76,West,259,0.0,0.0,89,0.00,,,0.00,meteohub,2013-09-14 03:21:00,
2013-09-13 23:26:00,59.2,53.4,29.76,West,259,0.0,1.0,88,0.00,,,0.00,meteohub,2013-09-14 03:26:00,
2013-09-13 23:31:00,59.2,53.4,29.76,West,259,0.0,1.0,88,0.00,,,0.00,meteohub,2013-09-14 03:31:00,
2013-09-13 23:36:00,59.2,53.4,29.76,West,259,0.0,0.0,88,0.00,,,0.00,meteohub,2013-09-14 03:36:00,
2013-09-13 23:41:00,59.2,53.4,29.77,West,259,0.0,1.0,87,0.00,,,0.00,meteohub,2013-09-14 03:41:00,
2013-09-13 23:46:00,59.0,53.4,29.77,West,259,0.0,1.0,87,0.00,,,0.00,meteohub,2013-09-14 03:46:00,
2013-09-13 23:51:00,59.0,53.2,29.77,West,259,0.0,1.0,87,0.00,,,0.00,meteohub,2013-09-14 03:51:00,
2013-09-13 23:56:00,59.0,53.2,29.77,West,259,0.0,0.0,87,0.00,,,0.00,meteohub,2013-09-14 03:56:00,